| time (UTC) | temp F | wind direction | speed knots | gust knots | rain 1hr in | rain 24hr in | rain mn in | humidity % | barometer mb |
| 20260506101709 | 46 | 65 | 0.9 | 3.5 | 0.02 | 0.67 | 0.17 | 96 | 1007.8 |
| 20260506100708 | 46 | 34 | 0.9 | 3.5 | 0.03 | 0.67 | 0.17 | 96 | 1007.8 |
| 20260506095706 | 46 | 60 | 0.0 | 1.7 | 0.03 | 0.64 | 0.17 | 96 | 1007.8 |
| 20260506094707 | 45 | 215 | 0.0 | 4.3 | 0.03 | 0.64 | 0.16 | 96 | 1008.2 |
| 20260506093704 | 45 | 265 | 1.7 | 6.1 | 0.02 | 0.64 | 0.15 | 97 | 1008.5 |
| 20260506092704 | 45 | 292 | 3.5 | 7.8 | 0.03 | 0.64 | 0.15 | 97 | 1008.5 |
| 20260506091703 | 46 | 320 | 1.7 | 7.0 | 0.04 | 0.64 | 0.15 | 97 | 1007.8 |
| 20260506090704 | 47 | 302 | 5.2 | 6.1 | 0.04 | 0.64 | 0.14 | 97 | 1007.8 |
| 20260506090147 | 47 | 234 | 1.7 | 2.6 | 0.05 | 0.59 | 0.14 | 97 | 1007.8 |
| 20260506084705 | 47 | 37 | 0.0 | 1.7 | 0.06 | 0.59 | 0.13 | 97 | 1007.5 |
| 20260506083704 | 47 | 48 | 0.9 | 1.7 | 0.06 | 0.59 | 0.13 | 97 | 1007.8 |
| 20260506083638 | 47 | 164 | 0.0 | 1.7 | 0.05 | 0.59 | 0.12 | 97 | 1008.2 |
| 20260506081707 | 46 | 224 | 1.7 | 1.7 | 0.05 | 0.59 | 0.11 | 97 | 1008.2 |
| 20260506080704 | 46 | 256 | 0.0 | 1.7 | 0.04 | 0.59 | 0.10 | 97 | 1008.2 |
| 20260506072704 | 46 | 315 | 0.0 | 2.6 | 0.01 | 0.56 | 0.06 | 96 | 1007.8 |
| 20260506072141 | 46 | 281 | 1.7 | 1.7 | 0.01 | 0.56 | 0.06 | 96 | 1007.8 |
| 20260506070705 | 47 | 235 | 0.0 | 1.7 | 0.01 | 0.56 | 0.06 | 96 | 1007.8 |
| 20260506070141 | 46 | 174 | 0.0 | 1.7 | 0.01 | 0.55 | 0.06 | 96 | 1007.8 |
| 20260506062139 | 46 | 259 | 0.0 | 1.7 | 0.02 | 0.56 | 0.05 | 95 | 1007.8 |
| 20260506060704 | 46 | 47 | 1.7 | 3.5 | 0.03 | 0.56 | 0.05 | 94 | 1007.8 |
| 20260506050703 | 46 | 72 | 1.7 | 4.3 | 0.02 | 0.52 | 0.02 | 96 | 1008.5 |
| 20260506044704 | 47 | 39 | 1.7 | 4.3 | 0.03 | 0.50 | 0.02 | 98 | 1008.9 |
| 20260506043703 | 46 | 49 | 2.6 | 5.2 | 0.03 | 0.50 | 0.01 | 98 | 1008.9 |
| 20260506042703 | 47 | 52 | 3.5 | 3.5 | 0.03 | 0.50 | 0.01 | 98 | 1008.9 |
| 20260506042621 | 47 | 75 | 1.7 | 1.7 | 0.05 | 0.50 | 0.01 | 99 | 1008.9 |
| 20260506040703 | 47 | 232 | 1.7 | 2.6 | 0.05 | 0.50 | 0.00 | 98 | 1009.2 |
| 20260506035703 | 48 | 268 | 0.0 | 1.7 | 0.06 | 0.44 | 0.50 | 99 | 1009.2 |
| 20260506035146 | 48 | 164 | 0.9 | 1.7 | 0.07 | 0.44 | 0.50 | 99 | 1009.2 |
| 20260506033710 | 48 | 343 | 0.0 | 2.6 | 0.08 | 0.44 | 0.48 | 99 | 1009.2 |
| 20260506032711 | 49 | 295 | 0.9 | 2.6 | 0.10 | 0.44 | 0.48 | 99 | 1009.2 |
| 20260506031705 | 49 | 267 | 1.7 | 3.5 | 0.09 | 0.44 | 0.46 | 99 | 1009.2 |
| 20260506030702 | 49 | 298 | 2.6 | 4.3 | 0.10 | 0.44 | 0.46 | 98 | 1009.2 |
| 20260506025702 | 49 | 21 | 3.5 | 4.3 | 0.11 | 0.35 | 0.43 | 98 | 1009.2 |
| 20260506024704 | 49 | 6 | 1.7 | 5.2 | 0.10 | 0.35 | 0.43 | 98 | 1008.9 |
| 20260506023658 | 49 | 356 | 2.6 | 5.2 | 0.08 | 0.35 | 0.41 | 98 | 1008.9 |
| 20260506022658 | 49 | 357 | 2.6 | 5.2 | 0.06 | 0.35 | 0.39 | 98 | 1008.9 |
| 20260506021656 | 49 | 259 | 0.0 | 4.3 | 0.06 | 0.35 | 0.37 | 98 | 1008.9 |
| 20260506020651 | 49 | 356 | 2.6 | 3.5 | 0.04 | 0.35 | 0.35 | 98 | 1008.9 |
| 20260506015650 | 49 | 300 | 1.7 | 3.5 | 0.02 | 0.31 | 0.33 | 98 | 1008.9 |
| 20260506014650 | 49 | 304 | 0.0 | 3.5 | 0.02 | 0.31 | 0.33 | 98 | 1008.9 |
| 20260506013647 | 49 | 283 | 0.0 | 2.6 | 0.03 | 0.31 | 0.33 | 98 | 1008.9 |
| 20260506012648 | 49 | 0 | 0.0 | 2.6 | 0.03 | 0.31 | 0.33 | 98 | 1008.5 |
| 20260506011645 | 49 | 288 | 1.7 | 2.6 | 0.02 | 0.31 | 0.31 | 98 | 1008.5 |
| 20260506010643 | 49 | 71 | 0.0 | 3.5 | 0.02 | 0.31 | 0.31 | 98 | 1008.5 |
| 20260506005641 | 49 | 299 | 1.7 | 4.3 | 0.02 | 0.30 | 0.31 | 98 | 1008.2 |
| 20260506005117 | 49 | 332 | 0.9 | 4.3 | 0.02 | 0.30 | 0.30 | 98 | 1008.2 |
| 20260506003633 | 49 | 32 | 1.7 | 4.3 | 0.02 | 0.30 | 0.30 | 97 | 1008.2 |
| 20260506003118 | 49 | 29 | 3.5 | 6.1 | 0.02 | 0.30 | 0.30 | 97 | 1008.2 |
| 20260506001631 | 49 | 347 | 2.6 | 7.0 | 0.05 | 0.30 | 0.30 | 97 | 1008.2 |
| 20260506001107 | 49 | 88 | 2.6 | 5.2 | 0.11 | 0.30 | 0.30 | 97 | 1007.8 |
| 20260505235635 | 49 | 26 | 4.3 | 5.2 | 0.12 | 0.17 | 0.30 | 97 | 1007.8 |
| 20260505234635 | 49 | 80 | 1.7 | 6.1 | 0.12 | 0.17 | 0.28 | 97 | 1008.9 |
| 20260505234541 | 49 | 51 | 1.7 | 3.5 | 0.13 | 0.17 | 0.28 | 97 | 1008.2 |
| 20260505232627 | 49 | 347 | 0.0 | 1.7 | 0.16 | 0.17 | 0.26 | 97 | 1008.5 |
| 20260505232554 | 49 | 98 | 0.9 | 3.5 | 0.15 | 0.17 | 0.24 | 97 | 1009.2 |
| 20260505230624 | 49 | 13 | 0.0 | 2.6 | 0.11 | 0.17 | 0.19 | 97 | 1008.5 |
| 20260505225623 | 49 | 212 | 0.0 | 2.6 | 0.12 | 0.07 | 0.17 | 97 | 1008.9 |
| 20260505224624 | 49 | 84 | 1.7 | 2.6 | 0.11 | 0.07 | 0.17 | 97 | 1008.9 |
| 20260505223621 | 49 | 304 | 1.7 | 1.7 | 0.11 | 0.07 | 0.15 | 96 | 1008.5 |
| 20260505223104 | 49 | 349 | 0.0 | 2.6 | 0.10 | 0.07 | 0.11 | 96 | 1008.5 |
| 20260505221616 | 49 | 333 | 1.7 | 3.5 | 0.09 | 0.07 | 0.09 | 96 | 1008.5 |
| 20260505220616 | 49 | 330 | 1.7 | 2.6 | 0.06 | 0.07 | 0.07 | 96 | 1008.2 |
| 20260505215614 | 49 | 295 | 1.7 | 4.3 | 0.00 | 0.00 | 0.06 | 96 | 1008.5 |
| 20260505214613 | 49 | 308 | 2.6 | 4.3 | 0.00 | 0.00 | 0.04 | 96 | 1008.5 |
| 20260505213610 | 49 | 15 | 0.0 | 4.3 | 0.00 | 0.00 | 0.04 | 96 | 1008.5 |
| 20260505213056 | 49 | 328 | 0.9 | 5.2 | 0.00 | 0.00 | 0.02 | 96 | 1008.2 |
| 20260505211610 | 50 | 310 | 6.1 | 0.0 | 0.00 | 0.00 | 0.00 | 96 | 1008.2 |
| 20260505211203 | 0 | 0.0 | 0.0 | 0.00 | 0.00 | 0.00 | |||
| 20260505210208 | 0 | 0.0 | 0.0 | 0.00 | 0.00 | 0.00 | |||
| 20260505205641 | 0 | 0.0 | 0.0 | 0.00 | 0.00 | 0.00 | |||
| 20260505204207 | 0 | 0.0 | 0.0 | 0.00 | 0.00 | 0.00 | |||
| 20260505203207 | 0 | 0.0 | 0.0 | 0.00 | 0.00 | 0.00 | |||
| 20260505202641 | 0 | 0.0 | 0.0 | 0.00 | 0.00 | 0.00 | |||
| 20260505201207 | 0 | 0.0 | 0.0 | 0.00 | 0.00 | 0.00 | |||
| 20260505200203 | 0 | 0.0 | 0.0 | 0.00 | 0.00 | 0.00 | |||
| 20260505195204 | 0 | 0.0 | 0.0 | 0.00 | 0.00 | 0.00 | |||
| 20260505194641 | 0 | 0.0 | 0.0 | 0.00 | 0.00 | 0.00 | |||
| 20260505193208 | 0 | 0.0 | 0.0 | 0.00 | 0.00 | 0.00 | |||
| 20260505192220 | 57 | 238 | 2.6 | 6.1 | 0.00 | 0.00 | 0.00 | 85 | 1007.8 |
| 20260505192207 | 0 | 0.0 | 0.0 | 0.00 | 0.00 | 0.00 | |||
| 20260505192013 | 56 | 262 | 5.2 | 0.0 | 0.00 | 0.00 | 0.00 | 87 | 1007.9 |
| 20260505192009 | 56 | 262 | 2.6 | 7.8 | 0.00 | 0.00 | 0.00 | 87 | 1007.8 |
| 20260505185212 | 57 | 281 | 4.3 | 10.4 | 0.00 | 0.00 | 0.00 | 85 | 1007.9 |
| 20260505184706 | 58 | 279 | 4.3 | 10.4 | 0.00 | 0.00 | 0.00 | 80 | 1008.0 |
| 20260505183647 | 58 | 302 | 4.3 | 7.8 | 0.00 | 0.00 | 0.00 | 82 | 1008.1 |
| 20260505182210 | 58 | 261 | 3.5 | 10.4 | 0.00 | 0.00 | 0.00 | 82 | 1007.9 |
| 20260505181210 | 58 | 298 | 3.5 | 7.8 | 0.00 | 0.00 | 0.00 | 82 | 1007.7 |
| 20260505180649 | 58 | 289 | 5.2 | 9.6 | 0.00 | 0.00 | 0.00 | 81 | 1007.8 |
| 20260505175210 | 59 | 273 | 4.3 | 11.3 | 0.00 | 0.00 | 0.00 | 80 | 1007.5 |
| 20260505174211 | 59 | 278 | 5.2 | 13.9 | 0.00 | 0.00 | 0.00 | 80 | 1007.6 |
| 20260505173650 | 59 | 267 | 7.8 | 13.0 | 0.00 | 0.00 | 0.00 | 79 | 1007.5 |
| 20260505172210 | 59 | 282 | 1.7 | 12.2 | 0.00 | 0.00 | 0.00 | 78 | 1007.3 |
| 20260505171657 | 59 | 285 | 7.8 | 16.5 | 0.00 | 0.00 | 0.00 | 79 | 1007.3 |
| 20260505170209 | 60 | 257 | 7.0 | 10.4 | 0.00 | 0.00 | 0.00 | 77 | 1007.4 |
| 20260505165210 | 60 | 271 | 6.1 | 13.0 | 0.00 | 0.00 | 0.00 | 76 | 1007.2 |
| 20260505164210 | 60 | 279 | 7.0 | 12.2 | 0.00 | 0.00 | 0.00 | 76 | 1007.2 |
| 20260505163210 | 61 | 277 | 5.2 | 14.8 | 0.00 | 0.00 | 0.00 | 74 | 1007.0 |
| 20260505162211 | 61 | 277 | 6.1 | 15.6 | 0.00 | 0.00 | 0.00 | 73 | 1007.2 |
| 20260505161210 | 62 | 293 | 6.1 | 14.8 | 0.00 | 0.00 | 0.00 | 70 | 1006.9 |
| 20260505160210 | 64 | 283 | 10.4 | 13.9 | 0.00 | 0.00 | 0.00 | 66 | 1006.9 |
| 20260505153137 | 67 | 278 | 6.1 | 12.2 | 0.00 | 0.00 | 0.00 | 59 | 1005.9 |
| 20260505151210 | 66 | 256 | 7.8 | 13.0 | 0.00 | 0.00 | 0.00 | 61 | 1005.7 |
| 20260505150223 | 66 | 256 | 9.6 | 13.9 | 0.00 | 0.00 | 0.00 | 62 | 1006.0 |
| 20260505140210 | 66 | 249 | 7.8 | 17.4 | 0.00 | 0.00 | 0.00 | 62 | 1005.4 |
| 20260505130211 | 64 | 236 | 7.8 | 14.8 | 0.00 | 0.00 | 0.00 | 66 | 1005.4 |
| 20260505123210 | 64 | 234 | 5.2 | 14.8 | 0.00 | 0.00 | 0.00 | 64 | 1005.3 |
| 20260505122650 | 64 | 158 | 1.7 | 13.9 | 0.00 | 0.00 | 0.00 | 64 | 1004.6 |
| 20260505121650 | 64 | 220 | 4.3 | 14.8 | 0.00 | 0.00 | 0.00 | 63 | 1004.5 |
| 20260505120646 | 65 | 249 | 8.7 | 15.6 | 0.00 | 0.00 | 0.00 | 61 | 1004.0 |
| 20260505115210 | 65 | 237 | 5.2 | 12.2 | 0.00 | 0.00 | 0.00 | 60 | 1004.2 |
| 20260505114650 | 65 | 266 | 6.1 | 13.9 | 0.00 | 0.00 | 0.00 | 60 | 1004.2 |
| 20260505113211 | 66 | 255 | 2.6 | 20.0 | 0.00 | 0.00 | 0.00 | 59 | 1004.1 |
| 20260505112210 | 66 | 283 | 2.6 | 13.0 | 0.00 | 0.00 | 0.00 | 59 | 1004.0 |
| 20260505111210 | 66 | 231 | 4.3 | 10.4 | 0.00 | 0.00 | 0.00 | 59 | 1003.9 |
| 20260505110652 | 66 | 275 | 4.3 | 14.8 | 0.00 | 0.00 | 0.00 | 59 | 1003.8 |